When you browse on this site, cookies collect data to enhance your experience and personalize the content and advertising you see.
Visit our Privacy Policy to learn more. By continuing to use the site, you agree to this use of cookies and data.
  • In Deutschland
  • Länderverzeichnis
  • Für 7 Tage
  • Wassertemperatur
  • Satellitenkarten
  • Wetterkarte
  • Widgets
  • user-avatar
    Anmelden

    Stündliche Wetter Hobart

    Heute, 16 Januar, Mittwoch

    Zeit Temperatur Niederschläge Wind Luftdruck Luftfeuchtigkeit
    00:00 +16°C° 0 mm 1 m/S 743 mmHg 94%
    01:00 +14°C° 0 mm 0 m/S 743 mmHg 95%
    02:00 +14°C° 0 mm 0 m/S 743 mmHg 95%
    03:00 +15°C° 0 mm 1 m/S 743 mmHg 95%
    04:00 +16°C° 0 mm 1 m/S 743 mmHg 93%
    05:00 +18°C° 0 mm 1 m/S 743 mmHg 89%
    06:00 +18°C° 0 mm 1 m/S 744 mmHg 85%
    07:00 +19°C° 0 mm 1 m/S 744 mmHg 82%
    08:00 +18°C° 0 mm 2 m/S 744 mmHg 77%
    09:00 +19°C° 0 mm 2 m/S 744 mmHg 72%
    10:00 +19°C° 0 mm 2 m/S 744 mmHg 67%
    11:00 +20°C° 0 mm 3 m/S 744 mmHg 64%
    12:00 +21°C° 0 mm 3 m/S 744 mmHg 60%
    13:00 +22°C° 0 mm 3 m/S 744 mmHg 56%
    14:00 +21°C° 0 mm 3 m/S 744 mmHg 57%
    15:00 +21°C° 0 mm 3 m/S 744 mmHg 58%
    16:00 +21°C° 0 mm 3 m/S 744 mmHg 59%
    17:00 +20°C° 0 mm 2 m/S 744 mmHg 66%
    18:00 +18°C° 0 mm 2 m/S 744 mmHg 72%
    19:00 +17°C° 0 mm 2 m/S 745 mmHg 78%
    20:00 +16°C° 0 mm 1 m/S 745 mmHg 81%
    21:00 +16°C° 0 mm 1 m/S 745 mmHg 85%
    22:00 +15°C° 0 mm 1 m/S 745 mmHg 88%
    23:00 +15°C° 0 mm 1 m/S 744 mmHg 90%

    Morgen, 17 Januar, Donnerstag

    Zeit Temperatur Niederschläge Wind Luftdruck Luftfeuchtigkeit
    00:00 +15°C° 0 mm 1 m/S 744 mmHg 92%
    01:00 +15°C° 0 mm 1 m/S 744 mmHg 93%
    02:00 +14°C° 0 mm 0 m/S 744 mmHg 94%
    03:00 +14°C° 0 mm 0 m/S 743 mmHg 95%
    04:00 +14°C° 0 mm 0 m/S 743 mmHg 96%
    05:00 +16°C° 0.1 mm 1 m/S 743 mmHg 92%
    06:00 +18°C° 0.1 mm 1 m/S 743 mmHg 89%
    07:00 +18°C° 0.1 mm 1 m/S 743 mmHg 86%
    08:00 +21°C° 0 mm 1 m/S 743 mmHg 73%
    09:00 +24°C° 0 mm 1 m/S 743 mmHg 60%
    10:00 +27°C° 0 mm 1 m/S 742 mmHg 48%
    11:00 +28°C° 0 mm 1 m/S 742 mmHg 44%
    12:00 +29°C° 0 mm 2 m/S 742 mmHg 40%
    13:00 +30°C° 0 mm 3 m/S 742 mmHg 37%
    14:00 +28°C° 0 mm 3 m/S 742 mmHg 45%
    15:00 +25°C° 0 mm 3 m/S 741 mmHg 53%
    16:00 +22°C° 0 mm 3 m/S 741 mmHg 62%
    17:00 +21°C° 0 mm 2 m/S 741 mmHg 66%
    18:00 +20°C° 0 mm 2 m/S 741 mmHg 69%
    19:00 +18°C° 0 mm 2 m/S 742 mmHg 73%
    20:00 +18°C° 0 mm 1 m/S 742 mmHg 79%
    21:00 +15°C° 0 mm 1 m/S 742 mmHg 85%
    22:00 +13°C° 0 mm 0 m/S 742 mmHg 92%
    23:00 +13°C° 0 mm 0 m/S 741 mmHg 92%

    übermorgen, 18 Januar, Freitag

    Zeit Temperatur Niederschläge Wind Luftdruck Luftfeuchtigkeit
    00:00 +13°C° 0 mm 0 m/S 741 mmHg 93%
    01:00 +13°C° 0 mm 0 m/S 741 mmHg 94%
    02:00 +13°C° 0 mm 0 m/S 741 mmHg 94%
    03:00 +13°C° 0 mm 0 m/S 741 mmHg 95%
    04:00 +13°C° 0 mm 0 m/S 741 mmHg 95%
    05:00 +14°C° 0 mm 0 m/S 741 mmHg 90%
    06:00 +15°C° 0 mm 0 m/S 741 mmHg 84%
    07:00 +16°C° 0 mm 0 m/S 742 mmHg 78%
    08:00 +18°C° 0 mm 0 m/S 742 mmHg 70%
    09:00 +20°C° 0 mm 0 m/S 741 mmHg 63%
    10:00 +22°C° 0 mm 0 m/S 741 mmHg 55%
    11:00 +26°C° 0 mm 1 m/S 741 mmHg 48%
    12:00 +27°C° 0 mm 1 m/S 741 mmHg 42%
    13:00 +29°C° 0 mm 2 m/S 740 mmHg 35%
    14:00 +28°C° 0 mm 2 m/S 740 mmHg 37%
    15:00 +27°C° 0 mm 3 m/S 740 mmHg 39%
    16:00 +26°C° 0 mm 3 m/S 740 mmHg 41%
    17:00 +24°C° 0 mm 3 m/S 740 mmHg 48%
    18:00 +21°C° 0 mm 2 m/S 740 mmHg 55%
    19:00 +20°C° 0 mm 1 m/S 741 mmHg 62%
    20:00 +18°C° 0 mm 2 m/S 741 mmHg 66%
    21:00 +17°C° 0 mm 2 m/S 742 mmHg 70%
    22:00 +15°C° 0 mm 2 m/S 742 mmHg 74%
    23:00 +14°C° 0.1 mm 2 m/S 743 mmHg 78%

    19 Januar, Samstag

    Zeit Temperatur Niederschläge Wind Luftdruck Luftfeuchtigkeit
    00:00 +12°C° 0.1 mm 3 m/S 743 mmHg 81%
    01:00 +11°C° 0.1 mm 3 m/S 743 mmHg 85%
    02:00 +11°C° 0 mm 3 m/S 744 mmHg 85%
    03:00 +11°C° 0 mm 3 m/S 745 mmHg 85%
    04:00 +10°C° 0 mm 2 m/S 745 mmHg 86%
    05:00 +11°C° 0 mm 3 m/S 746 mmHg 80%
    06:00 +12°C° 0 mm 3 m/S 747 mmHg 74%
    07:00 +14°C° 0 mm 3 m/S 747 mmHg 68%
    08:00 +16°C° 0 mm 3 m/S 748 mmHg 60%
    09:00 +17°C° 0 mm 4 m/S 748 mmHg 52%
    10:00 +19°C° 0 mm 4 m/S 749 mmHg 45%
    11:00 +20°C° 0 mm 4 m/S 749 mmHg 41%
    12:00 +21°C° 0 mm 4 m/S 749 mmHg 38%
    13:00 +22°C° 0 mm 4 m/S 749 mmHg 35%
    14:00 +22°C° 0 mm 4 m/S 749 mmHg 34%
    15:00 +24°C° 0 mm 3 m/S 749 mmHg 33%
    16:00 +24°C° 0 mm 3 m/S 749 mmHg 32%
    17:00 +22°C° 0 mm 3 m/S 750 mmHg 37%
    18:00 +21°C° 0 mm 2 m/S 750 mmHg 41%
    19:00 +21°C° 0 mm 1 m/S 750 mmHg 46%
    20:00 +19°C° 0 mm 1 m/S 751 mmHg 55%
    21:00 +15°C° 0 mm 1 m/S 751 mmHg 65%
    22:00 +13°C° 0 mm 1 m/S 752 mmHg 74%
    23:00 +12°C° 0 mm 1 m/S 751 mmHg 78%

    20 Januar, Sonntag

    Zeit Temperatur Niederschläge Wind Luftdruck Luftfeuchtigkeit
    00:00 +12°C° 0 mm 1 m/S 751 mmHg 82%
    01:00 +11°C° 0 mm 1 m/S 751 mmHg 86%
    02:00 +11°C° 0 mm 1 m/S 751 mmHg 88%
    03:00 +10°C° 0 mm 1 m/S 751 mmHg 91%
    04:00 +9°C° 0 mm 2 m/S 751 mmHg 93%
    05:00 +12°C° 0 mm 2 m/S 751 mmHg 86%
    06:00 +13°C° 0 mm 1 m/S 751 mmHg 79%
    07:00 +15°C° 0 mm 1 m/S 751 mmHg 73%
    08:00 +19°C° 0 mm 1 m/S 751 mmHg 61%
    09:00 +23°C° 0 mm 1 m/S 752 mmHg 50%
    10:00 +26°C° 0 mm 1 m/S 752 mmHg 38%
    11:00 +28°C° 0 mm 1 m/S 751 mmHg 35%
    12:00 +30°C° 0 mm 2 m/S 751 mmHg 32%
    13:00 +32°C° 0 mm 2 m/S 751 mmHg 29%
    14:00 +31°C° 0 mm 3 m/S 751 mmHg 32%
    15:00 +29°C° 0 mm 3 m/S 750 mmHg 35%
    16:00 +28°C° 0 mm 4 m/S 750 mmHg 38%
    17:00 +26°C° 0 mm 3 m/S 751 mmHg 45%
    18:00 +24°C° 0 mm 3 m/S 751 mmHg 52%
    19:00 +20°C° 0 mm 3 m/S 751 mmHg 59%
    20:00 +18°C° 0 mm 2 m/S 751 mmHg 68%
    21:00 +17°C° 0 mm 2 m/S 752 mmHg 77%
    22:00 +15°C° 0 mm 1 m/S 752 mmHg 86%
    23:00 +14°C° 0 mm 1 m/S 751 mmHg 88%

    21 Januar, Montag

    Zeit Temperatur Niederschläge Wind Luftdruck Luftfeuchtigkeit
    00:00 +14°C° 0 mm 1 m/S 751 mmHg 90%
    01:00 +14°C° 0 mm 1 m/S 750 mmHg 92%
    02:00 +13°C° 0 mm 1 m/S 750 mmHg 93%
    03:00 +13°C° 0 mm 1 m/S 750 mmHg 94%
    04:00 +13°C° 0 mm 1 m/S 750 mmHg 95%
    05:00 +15°C° 0 mm 1 m/S 750 mmHg 86%
    06:00 +16°C° 0 mm 1 m/S 750 mmHg 77%
    07:00 +19°C° 0 mm 1 m/S 750 mmHg 68%
    08:00 +22°C° 0 mm 1 m/S 750 mmHg 55%
    09:00 +25°C° 0 mm 1 m/S 750 mmHg 42%
    10:00 +28°C° 0 mm 1 m/S 750 mmHg 29%
    11:00 +30°C° 0 mm 2 m/S 749 mmHg 26%
    12:00 +31°C° 0 mm 2 m/S 749 mmHg 23%
    13:00 +32°C° 0 mm 2 m/S 749 mmHg 20%
    14:00 +31°C° 0 mm 3 m/S 748 mmHg 23%
    15:00 +30°C° 0 mm 3 m/S 748 mmHg 26%
    16:00 +29°C° 0 mm 3 m/S 748 mmHg 29%
    17:00 +27°C° 0 mm 3 m/S 748 mmHg 39%
    18:00 +25°C° 0 mm 3 m/S 748 mmHg 48%
    19:00 +23°C° 0 mm 2 m/S 748 mmHg 58%
    20:00 +19°C° 0 mm 2 m/S 748 mmHg 69%
    21:00 +18°C° 0 mm 1 m/S 749 mmHg 80%
    22:00 +14°C° 0 mm 0 m/S 749 mmHg 91%
    23:00 +15°C° 0 mm 1 m/S 748 mmHg 90%
    Mehr zeigen